Flag for Norway

Past Weather in Rørvik, Norway — Yesterday and Last 2 Weeks

Now
45 °F

Quite cool.


Feels Like: 43 °F
Forecast: 45 / 42 °F
Wind: 3 mph from North

Location: Bronnoysund / Bronnoy
Current Time: Oct 27, 2020 at 5:41:57 am
Latest Report: Oct 27, 2020 at 5:20 am
Visibility: N/A
Pressure29.36 "Hg
Humidity: 71%
Dew Point: 36 °F
Location of RørvikLocation

Past Weather in Rørvik — Graph

°F

Rørvik Temperature Yesterday

Maximum temperature yesterday: 50 °F (at 9:50 am)
Minimum temperature yesterday: 45 °F (at 8:20 am)
Average temperature yesterday: 48 °F

High & Low Weather Summary for the Past Weeks

 TemperatureHumidityPressure
High50 °F (Oct 12, 1:20 pm)100% (Oct 12, 10:50 pm)30.45 "Hg (Oct 12, 10:50 pm)
Low32 °F (Oct 19, 5:50 am)46% (Oct 18, 11:50 am)29.12 "Hg (Oct 25, 12:20 pm)
Average42 °F76%29.80 "Hg
* Reported Oct 12 5:20 am — Oct 27 4:20 am, Rørvik. Weather by CustomWeather, © 2020

Note: Actual official high and low records may vary slightly from our data, if they occured in-between our weather recording intervals... More about our weather records

Rørvik Weather History for the Previous 24 Hours

Scroll right to see more
 ConditionsComfort  
Time TempWeatherWind HumidityBarometerVisibility
4:20 am
Tue, Oct 27
45 °FQuite cool.5 mph71%29.36 "HgN/A
3:50 am43 °FQuite cool.5 mph71%29.36 "HgN/A
3:20 am43 °FQuite cool.3 mph66%29.39 "HgN/A
2:50 am45 °FQuite cool.3 mph66%29.39 "HgN/A
2:20 am45 °FQuite cool.9 mph71%29.39 "HgN/A
1:50 am45 °FQuite cool.10 mph71%29.39 "HgN/A
1:20 am45 °FQuite cool.7 mph61%29.42 "HgN/A
12:50 am46 °FCool.7 mph57%29.42 "HgN/A
12:20 am45 °FQuite cool.9 mph61%29.42 "HgN/A
11:50 pm
Mon, Oct 26
48 °FCool.8 mph54%29.42 "HgN/A
11:20 pm45 °FQuite cool.7 mph61%29.42 "HgN/A
10:50 pm45 °FClear.7 mph66%29.42 "Hg10 mi
10:20 pm48 °FClear.14 mph62%29.42 "Hg10 mi
9:50 pm48 °FClear.15 mph62%29.42 "Hg10 mi
9:20 pm48 °FClear.14 mph62%29.42 "Hg10 mi
8:50 pm48 °FClear.12 mph58%29.42 "Hg10 mi
8:20 pm48 °FPassing clouds.8 mph62%29.42 "HgN/A
7:50 pm48 °FPassing clouds.10 mph62%29.42 "HgN/A
7:20 pm48 °FPassing clouds.8 mph62%29.39 "HgN/A
6:50 pm48 °FClear.13 mph62%29.39 "Hg10 mi
6:20 pm48 °FClear.16 mph62%29.39 "Hg10 mi
5:50 pm48 °FPassing clouds.10 mph66%29.39 "HgN/A
5:20 pm48 °FScattered showers. Passing clouds.10 mph66%29.39 "HgN/A
4:50 pm46 °FSprinkles. Passing clouds.9 mph71%29.39 "HgN/A
4:20 pm48 °FSprinkles. Passing clouds.6 mph58%29.39 "HgN/A
3:50 pm48 °FScattered showers. Partly sunny.12 mph62%29.39 "HgN/A
3:20 pm48 °FScattered showers. Partly sunny.14 mph62%29.39 "HgN/A
2:50 pm48 °FSunny.10 mph62%29.39 "Hg10 mi
2:20 pm48 °FSunny.14 mph62%29.36 "Hg10 mi
1:50 pm48 °FPassing clouds.10 mph62%29.36 "HgN/A
1:20 pm50 °FPassing clouds.9 mph58%29.33 "HgN/A
12:50 pm50 °FSunny.13 mph58%29.33 "Hg10 mi
12:20 pm50 °FPassing clouds.9 mph58%29.33 "HgN/A
11:50 am50 °FSunny.15 mph54%29.33 "Hg10 mi
11:20 am50 °FPassing clouds.15 mph58%29.30 "HgN/A
10:50 am50 °FSunny.16 mph58%29.30 "Hg10 mi
10:20 am48 °FPassing clouds.7 mph62%29.30 "HgN/A
9:50 am50 °FPassing clouds.7 mph58%29.30 "HgN/A
9:20 am48 °FPassing clouds.8 mph62%29.30 "HgN/A
8:50 am45 °FPassing clouds.12 mph71%29.30 "HgN/A
8:20 am45 °FSunny.7 mph71%29.30 "Hg10 mi
7:50 am46 °FPassing clouds.8 mph66%29.30 "HgN/A
6:50 am48 °FPassing clouds.12 mph62%29.30 "HgN/A
6:20 am48 °FPassing clouds.8 mph62%29.30 "HgN/A
5:50 am48 °FClear.18 mph66%29.27 "Hg10 mi
5:20 am48 °FCool.18 mph66%29.27 "HgN/A
Weather by CustomWeather, © 2020

See weather overview